Hourly Weather Altyariq

Today, 8 July, Wednesday

Time Temperature Precipitation Wind Pressure Humidity
00:00 +28°C° 0 mm 1 mps 718 mmHg 23%
01:00 +28°C° 0 mm 1 mps 718 mmHg 24%
02:00 +27°C° 0 mm 1 mps 717 mmHg 25%
03:00 +26°C° 0 mm 1 mps 717 mmHg 27%
04:00 +25°C° 0 mm 1 mps 717 mmHg 29%
05:00 +22°C° 0 mm 0 mps 718 mmHg 30%
06:00 +27°C° 0 mm 1 mps 718 mmHg 27%
07:00 +30°C° 0 mm 1 mps 718 mmHg 23%
08:00 +33°C° 0 mm 1 mps 718 mmHg 19%
09:00 +35°C° 0 mm 2 mps 718 mmHg 17%
10:00 +37°C° 0 mm 2 mps 718 mmHg 15%
11:00 +39°C° 0 mm 2 mps 718 mmHg 13%
12:00 +40°C° 0 mm 2 mps 718 mmHg 12%
13:00 +42°C° 0 mm 3 mps 718 mmHg 11%
14:00 +43°C° 0 mm 3 mps 718 mmHg 10%
15:00 +42°C° 0 mm 4 mps 718 mmHg 12%
16:00 +42°C° 0 mm 5 mps 719 mmHg 13%
17:00 +41°C° 0 mm 6 mps 719 mmHg 14%
18:00 +40°C° 0 mm 5 mps 719 mmHg 16%
19:00 +37°C° 0 mm 3 mps 719 mmHg 17%
20:00 +36°C° 0 mm 2 mps 719 mmHg 19%
21:00 +35°C° 0 mm 2 mps 719 mmHg 21%
22:00 +34°C° 0 mm 2 mps 719 mmHg 23%
23:00 +32°C° 0 mm 2 mps 719 mmHg 26%

Tomorrow, 9 July, Thursday

Time Temperature Precipitation Wind Pressure Humidity
00:00 +31°C° 0 mm 1 mps 719 mmHg 27%
01:00 +30°C° 0 mm 1 mps 718 mmHg 29%
02:00 +29°C° 0 mm 1 mps 718 mmHg 30%
03:00 +28°C° 0 mm 1 mps 718 mmHg 32%
04:00 +27°C° 0 mm 1 mps 718 mmHg 34%
05:00 +27°C° 0 mm 1 mps 718 mmHg 37%
06:00 +28°C° 0.1 mm 2 mps 718 mmHg 34%
07:00 +30°C° 0.1 mm 2 mps 718 mmHg 31%
08:00 +33°C° 0.1 mm 3 mps 718 mmHg 28%
09:00 +35°C° 0 mm 2 mps 718 mmHg 25%
10:00 +36°C° 0 mm 1 mps 717 mmHg 22%
11:00 +39°C° 0 mm 1 mps 717 mmHg 18%
12:00 +40°C° 0 mm 1 mps 717 mmHg 17%
13:00 +41°C° 0 mm 2 mps 717 mmHg 15%
14:00 +42°C° 0 mm 2 mps 716 mmHg 13%
15:00 +42°C° 0 mm 4 mps 717 mmHg 13%
16:00 +42°C° 0 mm 5 mps 717 mmHg 14%
17:00 +43°C° 0 mm 7 mps 717 mmHg 15%
18:00 +40°C° 0 mm 7 mps 717 mmHg 18%
19:00 +38°C° 0 mm 7 mps 717 mmHg 20%
20:00 +35°C° 0 mm 8 mps 717 mmHg 23%
21:00 +34°C° 0 mm 7 mps 717 mmHg 23%
22:00 +34°C° 0 mm 6 mps 717 mmHg 23%
23:00 +33°C° 0 mm 5 mps 717 mmHg 23%

Day after tomorrow, 10 July, Friday

Time Temperature Precipitation Wind Pressure Humidity
00:00 +32°C° 0.1 mm 4 mps 717 mmHg 27%
01:00 +30°C° 0.1 mm 3 mps 717 mmHg 30%
02:00 +29°C° 0.1 mm 2 mps 717 mmHg 34%
03:00 +27°C° 0.1 mm 2 mps 717 mmHg 38%
04:00 +26°C° 0.1 mm 2 mps 717 mmHg 43%
05:00 +25°C° 0.1 mm 1 mps 717 mmHg 48%
06:00 +27°C° 0.1 mm 2 mps 717 mmHg 43%
07:00 +29°C° 0.1 mm 2 mps 717 mmHg 39%
08:00 +31°C° 0.1 mm 2 mps 717 mmHg 34%
09:00 +33°C° 0 mm 1 mps 717 mmHg 29%
10:00 +35°C° 0 mm 1 mps 717 mmHg 25%
11:00 +37°C° 0 mm 1 mps 717 mmHg 20%
12:00 +39°C° 0 mm 2 mps 716 mmHg 18%
13:00 +40°C° 0 mm 2 mps 716 mmHg 16%
14:00 +43°C° 0 mm 3 mps 716 mmHg 13%
15:00 +42°C° 0 mm 4 mps 716 mmHg 14%
16:00 +41°C° 0 mm 5 mps 716 mmHg 15%
17:00 +41°C° 0 mm 6 mps 716 mmHg 16%
18:00 +39°C° 0 mm 7 mps 716 mmHg 18%
19:00 +36°C° 0 mm 7 mps 717 mmHg 21%
20:00 +35°C° 0 mm 8 mps 717 mmHg 24%
21:00 +34°C° 0.1 mm 6 mps 717 mmHg 26%
22:00 +33°C° 0.1 mm 3 mps 717 mmHg 28%
23:00 +31°C° 0.1 mm 1 mps 717 mmHg 30%

11 July, Saturday

Time Temperature Precipitation Wind Pressure Humidity
00:00 +30°C° 0.1 mm 1 mps 717 mmHg 34%
01:00 +29°C° 0.1 mm 1 mps 717 mmHg 38%
02:00 +28°C° 0.1 mm 2 mps 717 mmHg 41%
03:00 +27°C° 0.1 mm 2 mps 717 mmHg 43%
04:00 +27°C° 0.1 mm 2 mps 717 mmHg 44%
05:00 +27°C° 0.1 mm 2 mps 718 mmHg 46%
06:00 +27°C° 0 mm 2 mps 718 mmHg 44%
07:00 +28°C° 0 mm 1 mps 717 mmHg 43%
08:00 +29°C° 0 mm 1 mps 717 mmHg 41%
09:00 +31°C° 0 mm 1 mps 717 mmHg 37%
10:00 +32°C° 0 mm 2 mps 717 mmHg 32%
11:00 +35°C° 0 mm 2 mps 717 mmHg 27%
12:00 +36°C° 0 mm 2 mps 717 mmHg 24%
13:00 +38°C° 0 mm 2 mps 716 mmHg 21%
14:00 +39°C° 0 mm 2 mps 716 mmHg 18%
15:00 +39°C° 0 mm 2 mps 716 mmHg 17%
16:00 +39°C° 0 mm 2 mps 716 mmHg 17%
17:00 +40°C° 0 mm 2 mps 716 mmHg 16%
18:00 +38°C° 0 mm 3 mps 716 mmHg 20%
19:00 +36°C° 0 mm 4 mps 716 mmHg 23%
20:00 +34°C° 0 mm 4 mps 717 mmHg 27%
21:00 +33°C° 0 mm 4 mps 717 mmHg 30%
22:00 +30°C° 0 mm 3 mps 717 mmHg 34%
23:00 +29°C° 0 mm 2 mps 716 mmHg 38%

12 July, Sunday

Time Temperature Precipitation Wind Pressure Humidity
00:00 +28°C° 0 mm 2 mps 716 mmHg 38%
01:00 +28°C° 0 mm 1 mps 716 mmHg 39%
02:00 +27°C° 0 mm 1 mps 716 mmHg 39%
03:00 +27°C° 0 mm 1 mps 715 mmHg 42%
04:00 +26°C° 0 mm 1 mps 715 mmHg 44%
05:00 +25°C° 0 mm 1 mps 715 mmHg 46%
06:00 +27°C° 0 mm 1 mps 715 mmHg 42%
07:00 +29°C° 0 mm 1 mps 715 mmHg 37%
08:00 +31°C° 0 mm 2 mps 715 mmHg 32%
09:00 +34°C° 0 mm 2 mps 715 mmHg 29%
10:00 +36°C° 0 mm 3 mps 715 mmHg 26%
11:00 +37°C° 0 mm 3 mps 715 mmHg 23%
12:00 +38°C° 0 mm 3 mps 715 mmHg 22%
13:00 +39°C° 0 mm 3 mps 715 mmHg 20%
14:00 +41°C° 0 mm 4 mps 715 mmHg 19%
15:00 +40°C° 0 mm 5 mps 715 mmHg 19%
16:00 +40°C° 0 mm 5 mps 715 mmHg 20%
17:00 +39°C° 0 mm 6 mps 715 mmHg 20%
18:00 +38°C° 0 mm 6 mps 715 mmHg 22%
19:00 +36°C° 0 mm 5 mps 715 mmHg 24%
20:00 +35°C° 0 mm 5 mps 716 mmHg 26%
21:00 +34°C° 0 mm 4 mps 716 mmHg 27%
22:00 +33°C° 0 mm 3 mps 716 mmHg 27%
23:00 +32°C° 0 mm 2 mps 716 mmHg 27%

13 July, Monday

Time Temperature Precipitation Wind Pressure Humidity
00:00 +31°C° 0 mm 2 mps 716 mmHg 30%
01:00 +30°C° 0 mm 2 mps 716 mmHg 32%
02:00 +30°C° 0 mm 1 mps 716 mmHg 34%
03:00 +29°C° 0.1 mm 2 mps 716 mmHg 39%
04:00 +28°C° 0.1 mm 3 mps 716 mmHg 43%
05:00 +27°C° 0.1 mm 3 mps 716 mmHg 47%
06:00 +28°C° 0 mm 4 mps 716 mmHg 46%
07:00 +29°C° 0 mm 4 mps 716 mmHg 44%
08:00 +30°C° 0 mm 5 mps 716 mmHg 43%
09:00 +32°C° 0 mm 4 mps 716 mmHg 39%
10:00 +34°C° 0 mm 4 mps 716 mmHg 35%
11:00 +35°C° 0 mm 4 mps 716 mmHg 31%
12:00 +36°C° 0 mm 4 mps 716 mmHg 28%
13:00 +38°C° 0 mm 3 mps 716 mmHg 25%
14:00 +39°C° 0 mm 3 mps 716 mmHg 22%
15:00 +39°C° 0 mm 3 mps 716 mmHg 21%
16:00 +39°C° 0 mm 3 mps 716 mmHg 20%
17:00 +40°C° 0 mm 3 mps 716 mmHg 18%
18:00 +37°C° 0.1 mm 2 mps 716 mmHg 23%
19:00 +35°C° 0.1 mm 2 mps 716 mmHg 27%
20:00 +31°C° 0.1 mm 1 mps 716 mmHg 31%
21:00 +31°C° 0 mm 1 mps 716 mmHg 33%
22:00 +30°C° 0 mm 1 mps 716 mmHg 35%
23:00 +30°C° 0 mm 2 mps 716 mmHg 37%
Show more